Tracking 18784 objects as of 17-August-2017
HD Live streaming from Space Station
objects crossing your sky now

ATLANTIS

Track ATLANTIS now!
10-day predictions
ATLANTIS is classified as:


NORAD ID: 42737
Int'l Code: 1998-067MS
Perigee: 394.3 km
Apogee: 406.6 km
Inclination: 51.6 °
Period: 92.4 minutes
Semi major axis: 6771 km
RCS: Unknown
Launch date: November 20, 1998
Source: United States (US)
Launch site: TYURATAM MISSILE AND SPACE COMPLEX (TTMTR)
Uplink (MHz):
Downlink (MHz): 436.390
Beacon (MHz):
Mode: 9600bps GMSK
Call sign: WD8DOX
Status: Active

Your satellite tracking list
Your tracking list is empty





NASA's NSSDC Master Catalog

Two Line Element Set (TLE):
1 42737U 98067MS  17227.91171432  .00019195  00000-0  25649-3 0  9994
2 42737  51.6388  99.2326 0009104 159.1941 200.9424 15.58035147 12598
Source of the keplerian elements: AFSPC